Weather History for KBVO - June, 2014

Change the Weather History Date:

Sunday, June 15, 2014

  Actual Average Record
Temperature  
Mean Temperature 72 °F -  
Max Temperature 82 °F 88 °F 102 °F (1953)
Min Temperature 62 °F 64 °F 51 °F (1969)
Cooling Degree Days 6    
Growing Degree Days 22 (Base 50)    
Moisture  
Dew Point 66 °F    
Average Humidity 89    
Maximum Humidity 100    
Minimum Humidity 68    
Precipitation  
Precipitation 2.16 in - - ()
Sea Level Pressure  
Sea Level Pressure 29.85 in    
Wind  
Wind Speed 8 mph (SSE)    
Max Wind Speed 15 mph    
Max Gust Speed 36 mph    
Visibility 8 miles    
Events Rain , Thunderstorm    
Averages and records for this station are not official NWS values.
T = Trace of Precipitation, MM = Missing Value Source: NWS Daily Summary

Daily Weather History Graph

Daily Weather History Graph

Search for Another Location

Airport or City:

Trip Planner

Search our weather history database for the weather conditions in past years. The results will help you decide how hot, cold, wet, or windy it might be!

Date:

Astronomy

Jun. 15, 2014 Rise Set
Actual Time 6:04 AM CDT 8:44 PM CDT
Civil Twilight 5:33 AM CDT 9:15 PM CDT
Nautical Twilight 4:55 AM CDT 9:53 PM CDT
Astronomical Twilight 4:12 AM CDT 10:36 PM CDT
Moon 11:00 PM CDT (6/15) 8:55 AM CDT (6/15)
Length of Visible Light 15h 41m
Length of Day
14h 40m
Waning Gibbous, 91% of the Moon is Illuminated
Jun 15
Waning Gibbous
Jun 19
Last Quarter
Jun 27
New
Jul 5
First Quarter
Jul 12
Full

Hourly Weather History & Observations

Time (CDT) Temp. Heat Index Dew Point Humidity Pressure Visibility Wind Dir Wind Speed Gust Speed Precip Events Conditions
12:53 AM 75.9 °F - 70.0 °F 82% 29.68 in 10.0 mi South 12.7 mph 25.3 mph N/A   Clear
1:43 AM 75.9 °F - 70.0 °F 82% 29.72 in 10.0 mi South 10.4 mph 18.4 mph N/A   Mostly Cloudy
1:53 AM 75.9 °F - 70.0 °F 82% 29.69 in 10.0 mi South 9.2 mph 19.6 mph N/A   Mostly Cloudy
2:15 AM 77.0 °F - 69.1 °F 76% 29.72 in 10.0 mi South 10.4 mph 21.9 mph N/A   Partly Cloudy
2:53 AM 75.9 °F - 69.1 °F 79% 29.68 in 10.0 mi South 15.0 mph 24.2 mph N/A   Clear
3:28 AM 77.0 °F - 69.1 °F 76% 29.71 in 10.0 mi South 12.7 mph 23.0 mph N/A   Mostly Cloudy
3:53 AM 77.0 °F - 69.1 °F 76% 29.67 in 10.0 mi South 11.5 mph 24.2 mph N/A   Mostly Cloudy
4:15 AM 77.0 °F - 69.1 °F 76% 29.71 in 10.0 mi South 12.7 mph 21.9 mph N/A   Scattered Clouds
4:38 AM 77.0 °F - 69.1 °F 76% 29.81 in 10.0 mi Variable 5.8 mph - N/A   Mostly Cloudy
4:53 AM 77.0 °F - 70.0 °F 79% 29.78 in 10.0 mi WNW 4.6 mph - N/A Thunderstorm Overcast
5:05 AM 71.1 °F - 60.1 °F 68% 29.86 in 10.0 mi NW 8.1 mph 35.7 mph N/A Thunderstorm Thunderstorm
5:15 AM 64.0 °F - 62.1 °F 93% 29.87 in 1.8 mi Variable 4.6 mph - 0.12 in Rain , Thunderstorm Heavy Thunderstorms and Rain
5:23 AM 63.0 °F - 55.9 °F 78% 29.87 in 1.0 mi Variable 5.8 mph - 0.30 in Rain , Thunderstorm Heavy Thunderstorms and Rain
5:40 AM 64.0 °F - 63.0 °F 96% 29.88 in 2.5 mi North 5.8 mph - 0.46 in Rain , Thunderstorm Heavy Thunderstorms and Rain
5:48 AM 62.6 °F - 62.6 °F 100% 29.86 in 0.8 mi NNE 8.1 mph - 0.78 in Rain , Thunderstorm Heavy Thunderstorms and Rain
5:51 AM 62.6 °F - 62.6 °F 100% 29.88 in 0.5 mi Variable 3.5 mph - 0.96 in Rain , Thunderstorm Heavy Thunderstorms and Rain
5:53 AM 63.0 °F - 63.0 °F 100% 29.85 in 0.5 mi ENE 3.5 mph - 1.03 in Rain , Thunderstorm Heavy Thunderstorms and Rain
5:58 AM 63.0 °F - 63.0 °F 100% 29.87 in 0.8 mi East 8.1 mph - 0.22 in Rain , Thunderstorm Heavy Thunderstorms and Rain
6:07 AM 63.0 °F - 63.0 °F 100% 29.87 in 1.5 mi East 3.5 mph - 0.37 in Rain , Thunderstorm Heavy Thunderstorms and Rain
6:14 AM 63.0 °F - 63.0 °F 100% 29.85 in 2.5 mi North 8.1 mph - 0.45 in Rain , Thunderstorm Heavy Thunderstorms and Rain
6:20 AM 63.0 °F - 63.0 °F 100% 29.85 in 1.5 mi NE 4.6 mph - 0.55 in Rain , Thunderstorm Heavy Rain
6:26 AM 63.0 °F - 63.0 °F 100% 29.85 in 2.0 mi East 4.6 mph - 0.62 in Rain , Thunderstorm Heavy Thunderstorms and Rain
6:36 AM 63.0 °F - 63.0 °F 100% 29.87 in 1.2 mi SE 8.1 mph - 0.86 in Rain , Thunderstorm Heavy Thunderstorms and Rain
6:53 AM 63.0 °F - 63.0 °F 100% 29.83 in 4.0 mi Calm Calm - 1.06 in Rain , Thunderstorm Light Thunderstorms and Rain
7:23 AM 63.0 °F - 63.0 °F 100% 29.85 in 9.0 mi Variable 4.6 mph - 0.05 in Rain , Thunderstorm Light Thunderstorms and Rain
7:29 AM 63.0 °F - 63.0 °F 100% 29.86 in 10.0 mi SE 6.9 mph - 0.05 in Rain , Thunderstorm Light Rain
7:35 AM 63.0 °F - 63.0 °F 100% 29.86 in 10.0 mi SE 8.1 mph - 0.05 in Rain , Thunderstorm Light Thunderstorms and Rain
7:53 AM 64.0 °F - 64.0 °F 100% 29.83 in 10.0 mi SSE 9.2 mph - 0.06 in Rain , Thunderstorm Light Rain
8:06 AM 64.0 °F - 64.0 °F 100% 29.86 in 10.0 mi SSE 4.6 mph - 0.00 in   Mostly Cloudy
8:53 AM 64.9 °F - 64.9 °F 100% 29.86 in 10.0 mi SSE 6.9 mph - 0.00 in   Mostly Cloudy
9:08 AM 64.9 °F - 64.9 °F 100% 29.89 in 10.0 mi SSE 11.5 mph 20.7 mph N/A   Overcast
9:53 AM 66.0 °F - 64.9 °F 96% 29.88 in 10.0 mi SE 11.5 mph - N/A   Overcast
10:22 AM 66.0 °F - 64.9 °F 96% 29.92 in 10.0 mi SE 8.1 mph - N/A   Overcast
10:53 AM 66.9 °F - 64.9 °F 93% 29.90 in 10.0 mi SE 10.4 mph - N/A   Overcast
11:03 AM 66.9 °F - 64.9 °F 93% 29.92 in 10.0 mi SSE 6.9 mph - N/A   Overcast
11:53 AM 66.9 °F - 64.9 °F 93% 29.90 in 10.0 mi SE 8.1 mph - N/A   Overcast
12:22 PM 68.0 °F - 64.9 °F 90% 29.93 in 10.0 mi SSE 9.2 mph - N/A   Overcast
12:45 PM 70.0 °F - 66.0 °F 87% 29.94 in 10.0 mi SSE 8.1 mph - N/A   Overcast
12:53 PM 70.0 °F - 66.0 °F 87% 29.91 in 10.0 mi South 6.9 mph - N/A   Overcast
1:05 PM 70.0 °F - 66.0 °F 87% 29.94 in 10.0 mi SSE 9.2 mph - N/A   Overcast
1:53 PM 69.1 °F - 66.9 °F 93% 29.90 in 7.0 mi South 5.8 mph - 0.01 in Rain Light Rain
2:01 PM 70.0 °F - 66.9 °F 90% 29.93 in 8.0 mi South 5.8 mph - 0.00 in Rain Light Rain
2:53 PM 75.0 °F - 69.1 °F 82% 29.88 in 10.0 mi South 9.2 mph - 0.00 in   Overcast
3:53 PM 79.0 °F - 71.1 °F 77% 29.87 in 10.0 mi South 12.7 mph - N/A   Mostly Cloudy
4:53 PM 80.1 °F 83.8 °F 72.0 °F 76% 29.86 in 10.0 mi South 11.5 mph - N/A   Mostly Cloudy
5:53 PM 80.1 °F 83.8 °F 72.0 °F 76% 29.86 in 10.0 mi South 6.9 mph - N/A   Overcast
6:16 PM 80.1 °F 83.8 °F 72.0 °F 76% 29.89 in 10.0 mi South 4.6 mph - N/A   Mostly Cloudy
6:53 PM 81.0 °F 85.2 °F 72.0 °F 74% 29.86 in 10.0 mi SSE 4.6 mph - N/A   Mostly Cloudy
7:53 PM 79.0 °F - 73.9 °F 84% 29.87 in 10.0 mi East 3.5 mph - N/A   Mostly Cloudy
8:53 PM 78.1 °F - 73.0 °F 84% 29.87 in 10.0 mi SSE 5.8 mph - N/A   Mostly Cloudy
9:53 PM 75.9 °F - 73.0 °F 91% 29.89 in 10.0 mi Calm Calm - N/A   Clear
10:53 PM 75.0 °F - 72.0 °F 90% 29.91 in 10.0 mi SSE 3.5 mph - N/A   Clear
11:53 PM 72.0 °F - 71.1 °F 97% 29.92 in 7.0 mi Calm Calm - N/A   Mostly Cloudy